Tracking 28920 objects as of 24-May-2024
HD Live streaming from Space Station
objects crossing your sky now

DELTA 1 DEB

Track DELTA 1 DEB now!
10-day predictions


NORAD ID: 7076
Int'l Code: 1973-086BU
Perigee: 1,504.4 km
Apogee: 1,524.6 km
Inclination: 102.2 °
Period: 116.1 minutes
Semi major axis: 7885 km
RCS: 0.1249 m2 (medium)
Launch date: November 6, 1973
Source: United States (US)
Launch site: AIR FORCE WESTERN TEST RANGE (AFWTR)

Note: This is SATELLITE DEBRIS
Your satellite tracking list
Your tracking list is empty




NASA's NSSDC Master Catalog

Two Line Element Set (TLE):
1 07076U 73086BU  24144.87181969 -.00000011  00000-0  26385-3 0  9998
2 07076 102.2422 129.2730 0012779  18.5027  45.8724 12.39816106286832
Source of the keplerian elements: AFSPC